User: anonymous   Login
Location: Unspecified
(0.0000°N, 0.0000°E)
Time: 04:14:08
(UTC+00:00)
Language:

N. Korean satellite - Orbit

View from above orbital plane
View from above orbital plane
View from above satellite
View from above satellite

Ground track
Ground track

The orbit data is extracted from the following two-line orbital elements,

1 39026U 12072A   14296.72457655  .00012082  00000-0  61699-3 0  1691
2 39026 097.3135 331.6142 0050319 343.6526 016.3081 15.15717553102830
Epoch (UTC): 23 October 2014 17:23:23
Eccentricity: 0.0050319
inclination: 97.3135°
perigee height: 484 km
apogee height: 553 km
right ascension of ascending node: 331.6142°
argument of perigee: 343.6526°
revolutions per day: 15.15717553
mean anomaly at epoch: 16.3081°
orbit number at epoch: 10283

The dashed part of the orbit path shows where the satellite is in the earth's shadow,  

DLR